Simultaneous Nadir Overpasses (SNOs) Predictions

Prediction of SNOs between GOES-16 and TERRA Satellite Orbit:

Table of predicted SNOs for the next 14.0 days since TLE Epoch: 5/4/2019
Index Date Time (GOES-16) GOES-16 Lat,Lon TERRA Lat,Lon Distance(km) Time Diff (sec)
1 05/04/2019 03:28:43 0.01, -75.21 0.12, -74.59 70.59 1
2 05/06/2019 03:15:13 0.01, -75.23 0.77, -71.63 408.55 80
3 05/06/2019 15:36:29 -0.01, -75.25 0.29, -76.80 175.36 80
4 05/08/2019 15:26:57 -0.00, -75.27 -0.30, -73.83 162.93 80
5 05/09/2019 03:48:20 -0.00, -75.26 -0.82, -79.02 428.76 80
6 05/11/2019 03:36:09 -0.01, -75.28 -0.16, -76.07 90.18 80
7 05/13/2019 03:21:18 -0.01, -75.30 0.44, -73.11 248.99 80
8 05/13/2019 15:42:33 0.01, -75.33 0.61, -78.27 334.62 80
9 05/15/2019 15:33:01 0.01, -75.36 0.00, -75.31 5.54 80
10 05/17/2019 15:18:09 0.01, -75.40 -0.62, -72.35 346.38 80




NCC Satellite Simultaneous Nadir Overpasses (SNOs) Prediction Service
